Wetbulb
52.61 52.61 52.63 52.77 52.94 52.87 52.98 53.01 53.07 53.32 52.97 52.94 53.14 53.21 52.38 52.69 53.87 51.75 47.14 50.04 46.79 43.75 45.56 49.29 50.01 48.04 48.03 49.90 45.75 48.48 51.68 52.98 53.83 47.77 46.97 46.35 43.90 47.01 46.95 45.75 43.92 42.82 43.01 42.46 44.18 45.74 44.36 56.03 56.21 53.80 53.43 65.75 66.65 66.62
52.59 52.73 52.77 52.77 52.65 52.85 52.90 53.02 53.07 53.07 53.26 52.81 53.00 53.25 53.07 53.66 53.85 53.45 44.37 49.61 50.26 43.90 45.39 51.05 51.69 52.54 51.78 51.59 49.69 48.47 50.64 48.57 52.66 50.36 50.85 51.77 51.08 49.30 43.58 43.50 50.09 45.55 47.99 48.16 48.27 48.34 53.78 55.12 55.69 56.77 66.28 66.18 66.13 66.31
52.69 52.59 52.67 52.88 52.86 52.67 52.44 52.69 52.92 53.11 53.11 52.72 52.80 52.87 53.25 53.21 53.72 52.36 47.52 48.31 46.34 44.68 45.61 44.67 47.20 53.20 54.28 53.78 56.37 48.57 49.62 49.68 49.73 52.60 51.68 52.15 50.30 50.96 47.58 44.79 45.04 48.26 49.72 48.54 47.99 50.09 56.39 56.96 60.75 63.92 67.40 67.09 67.58 67.58
52.57 52.36 52.40 52.52 52.44 52.23 52.27 52.50 52.85 52.59 52.82 52.87 52.75 52.65 53.11 53.52 54.01 52.69 46.27 46.37 44.34 42.66 40.42 44.12 51.93 50.55 55.36 55.49 58.20 56.28 53.23 52.10 50.58 51.91 51.02 50.65 50.06 52.76 49.94 51.36 49.44 49.90 49.51 48.97 48.79 50.76 55.69 58.73 65.12 65.97 67.16 68.13 68.10 68.46
52.66 52.40 52.40 52.03 51.93 52.05 52.73 52.48 52.88 53.06 52.94 52.90 52.92 53.03 53.24 53.46 53.10 50.18 46.47 46.16 47.00 42.50 39.64 41.11 48.16 51.14 53.36 54.09 56.74 57.35 53.24 49.10 48.61 49.09 48.56 48.85 51.35 51.42 52.03 52.86 51.38 54.09 51.60 48.17 47.68 51.65 52.83 56.73 65.36 68.27 67.43 67.49 68.13 67.66
52.20 52.49 52.31 52.33 52.34 51.78 52.46 52.98 52.92 52.90 52.38 52.67 52.61 52.13 52.40 52.33 51.91 44.46 43.09 47.80 47.27 43.92 42.46 39.22 47.03 49.38 52.31 51.02 51.22 52.16 52.60 48.67 48.23 47.21 47.73 51.04 53.24 51.90 50.30 49.67 54.20 55.12 56.26 55.74 56.37 58.82 58.90 59.92 67.98 69.02 67.84 68.11 68.61 68.02
52.29 52.16 52.29 52.41 52.11 51.80 51.86 52.15 52.34 52.73 52.59 52.54 52.19 52.00 51.98 51.55 47.05 41.43 40.90 46.31 48.75 44.52 42.04 40.44 42.64 49.75 51.76 50.66 49.29 50.75 51.19 49.73 48.27 46.53 47.23 48.28 50.81 53.26 51.79 48.56 54.54 56.95 58.86 61.25 64.64 61.82 57.88 62.71 64.06 68.59 68.60 68.73 66.62 68.10
51.98 52.02 52.08 52.14 52.30 52.47 52.30 51.73 51.79 51.73 52.08 52.59 52.24 52.07 51.84 51.41 49.41 45.17 47.52 50.02 48.23 43.35 44.09 39.51 42.03 46.53 47.84 45.70 44.99 48.47 47.79 47.48 47.81 46.51 47.73 48.18 49.94 51.60 50.70 54.48 56.88 58.63 58.90 60.90 63.48 63.74 61.13 64.45 65.43 67.67 68.36 67.89 66.47 65.46
52.15 51.62 51.66 51.98 51.91 51.83 52.03 52.11 52.49 52.20 51.99 51.82 52.09 52.22 47.39 44.23 43.79 45.55 53.56 53.00 47.37 45.60 41.50 41.30 39.09 41.56 50.07 45.56 46.88 46.41 46.59 42.37 46.41 44.46 45.61 48.51 46.92 45.74 50.85 55.32 55.92 58.37 58.58 58.71 62.28 64.34 65.63 66.23 66.37 66.78 66.46 65.88 64.62 64.38
51.81 51.61 51.77 51.77 51.81 51.71 51.94 52.54 52.82 51.93 51.38 51.37 47.04 45.04 42.92 45.77 53.12 50.80 47.09 44.48 44.00 44.26 44.13 39.30 42.39 41.23 47.66 46.33 44.05 44.44 44.09 42.15 40.28 43.49 47.43 44.42 43.85 49.90 53.14 54.82 55.50 56.26 57.93 59.09 59.40 60.13 61.95 62.72 63.83 65.13 65.46 65.94 66.08 65.64
51.50 51.57 51.70 51.57 51.52 51.61 51.96 52.27 51.62 51.14 50.28 44.58 40.04 39.83 44.43 51.25 45.77 44.52 40.98 40.70 41.28 38.40 39.86 41.21 40.99 39.24 45.19 45.36 45.97 47.80 43.26 42.74 39.51 42.72 43.02 40.98 42.36 47.08 51.46 52.52 54.00 54.07 57.20 57.66 59.01 62.49 62.82 63.15 63.26 60.45 64.42 65.56 66.05 65.95
51.76 51.55 51.45 51.40 51.28 51.50 51.77 51.75 51.44 46.37 43.57 42.60 42.21 44.89 43.56 42.38 41.60 38.56 39.93 40.67 40.66 39.53 42.14 40.53 42.29 42.59 44.20 48.45 46.74 47.48 45.56 44.66 39.86 46.26 42.59 40.34 44.21 49.93 51.36 52.55 53.82 53.71 55.99 58.49 60.92 62.27 63.29 64.69 64.76 64.11 64.85 65.56 65.73 65.73
52.09 52.11 52.09 52.02 51.87 51.82 51.88 52.19 51.32 50.94 49.54 44.65 43.39 40.14 40.38 40.30 29.82 34.88 33.71 36.92 37.57 45.09 46.84 46.50 41.69 44.34 44.09 46.17 46.36 45.49 44.60 43.05 47.21 43.04 41.89 43.43 46.99 50.95 51.78 54.31 56.07 56.84 57.69 59.14 59.58 60.70 63.08 63.72 66.12 67.23 66.02 66.33 66.47 66.00
51.92 51.96 51.90 52.01 52.38 52.41 51.99 51.02 50.99 49.40 44.96 40.07 37.65 32.55 34.50 33.92 35.50 36.02 37.15 40.83 45.40 46.19 46.36 45.86 43.89 44.53 45.20 42.59 43.38 41.71 44.61 45.67 42.05 39.61 41.19 47.61 55.11 58.24 60.34 57.42 54.90 54.94 56.13 57.67 58.48 59.25 60.31 62.90 65.52 63.39 65.32 65.98 65.91 65.23
51.56 51.60 51.60 51.42 51.94 52.31 51.80 49.95 50.07 47.52 42.75 39.80 40.12 34.18 35.56 38.91 41.95 43.12 44.94 45.80 46.00 46.87 45.48 44.37 43.91 43.57 42.66 42.37 41.34 41.11 41.69 41.22 42.80 42.12 45.83 54.49 56.34 56.88 58.49 61.18 61.98 58.40 58.75 57.97 57.80 57.34 60.52 64.95 64.84 64.86 65.75 65.73 65.47 64.29
51.45 50.94 50.98 51.61 51.89 51.16 49.72 49.51 48.58 46.66 42.84 40.61 39.97 37.73 38.64 37.61 39.29 42.26 44.70 43.10 44.83 45.35 45.30 43.80 40.53 40.16 39.64 41.52 41.01 39.43 40.39 40.01 43.82 48.63 53.48 55.13 56.03 57.78 57.68 60.20 61.88 62.69 60.87 58.33 57.01 58.77 64.02 64.52 64.80 64.55 64.56 64.53 64.32 63.85
51.05 47.10 51.93 51.71 50.82 49.89 49.77 46.97 46.04 43.01 41.77 40.25 39.91 43.32 41.61 39.96 37.68 38.40 41.47 45.60 45.39 43.29 39.93 40.81 37.99 39.01 41.43 39.12 39.35 42.43 40.15 41.42 45.26 51.06 55.26 58.62 56.83 57.35 58.85 60.26 61.57 62.62 62.56 63.01 62.81 61.86 63.25 64.74 64.97 64.32 62.73 62.34 63.13 63.26
46.74 48.63 51.75 50.48 48.67 49.25 47.71 46.12 43.14 41.18 38.12 40.78 38.49 41.06 43.57 44.53 43.42 41.43 41.20 42.41 43.15 41.62 41.30 39.26 41.73 38.32 38.61 38.36 38.08 40.97 45.48 49.74 52.00 52.46 53.94 55.79 57.12 57.36 58.37 59.29 62.27 61.93 62.38 62.67 64.65 63.99 64.17 64.38 63.80 62.85 63.12 61.88 61.14 60.93
48.32 48.93 51.09 50.63 49.51 47.77 43.68 43.52 43.51 37.63 39.23 41.30 42.29 42.63 43.26 43.49 45.15 45.41 44.76 44.05 43.46 45.94 46.19 42.15 38.67 38.14 39.56 41.72 42.53 45.73 48.84 50.24 49.93 50.61 52.14 55.23 56.90 57.15 57.44 59.53 60.39 60.38 60.40 60.46 62.95 63.36 64.30 64.66 63.84 62.95 61.89 61.87 60.49 60.23
50.80 51.52 52.30 51.47 50.16 45.58 42.91 42.72 44.50 40.13 38.32 41.40 43.16 41.79 42.48 43.10 45.04 45.29 44.93 45.01 44.40 44.38 42.22 40.70 39.83 40.34 41.27 43.12 48.57 49.05 50.17 50.48 50.30 49.08 48.97 51.22 54.28 56.34 56.39 60.02 57.71 57.57 58.17 60.12 61.88 58.15 63.49 63.36 64.36 63.42 62.64 61.50 60.52 59.51
49.67 50.68 51.31 50.22 48.00 46.76 45.06 43.87 41.92 41.82 42.41 41.90 44.61 43.72 43.83 46.05 45.33 45.85 44.08 45.40 42.99 42.07 40.68 42.11 41.51 43.09 45.01 46.50 47.81 49.80 49.60 50.56 49.82 50.79 50.32 50.81 52.79 55.14 57.23 58.63 57.35 57.55 54.70 55.68 61.16 59.45 57.37 61.29 61.71 61.63 61.17 60.87 60.65 60.14
47.31 52.78 49.75 50.21 46.19 45.95 43.83 45.88 44.35 46.43 44.72 44.91 45.51 46.77 45.16 46.27 47.93 46.05 45.60 43.19 42.74 44.26 45.85 45.47 46.00 45.85 44.93 45.20 46.73 47.10 50.16 51.51 51.42 51.90 49.01 51.01 54.26 54.51 57.07 59.46 57.79 54.41 56.46 57.49 60.80 61.69 60.68 61.90 61.85 61.22 60.52 59.65 56.72 52.97
52.09 51.82 50.18 48.43 44.96 42.20 40.75 48.20 43.66 45.11 42.50 44.61 47.03 45.71 46.72 48.04 49.46 46.97 45.18 46.14 46.83 49.97 49.21 48.62 49.08 50.47 49.73 50.01 50.26 50.89 51.81 51.61 51.21 51.81 52.03 53.07 56.46 58.59 58.37 58.23 58.15 56.19 55.42 54.75 56.00 58.05 60.00 55.78 56.24 58.50 56.23 54.84 52.77 51.13
52.77 49.99 47.55 46.30 44.70 41.87 48.07 45.87 46.74 46.66 46.59 45.74 45.51 44.94 46.90 48.35 50.66 47.48 45.04 47.46 49.90 51.88 51.52 51.75 52.27 51.42 52.07 52.23 51.96 52.30 53.01 53.06 52.51 51.79 54.00 56.97 56.08 55.58 56.38 56.40 56.85 57.19 56.10 54.88 53.84 53.02 52.84 53.82 52.68 54.40 53.11 51.86 51.05 50.48
44.24 43.28 44.29 37.51 47.67 46.76 46.56 46.38 46.40 46.38 44.44 45.65 45.28 45.40 47.05 49.34 46.12 45.48 44.65 46.85 49.18 49.96 51.68 54.75 53.95 52.85 51.06 50.99 51.57 52.30 55.56 54.64 53.66 54.16 55.74 57.03 55.56 55.06 53.97 54.00 54.16 55.82 55.70 54.26 53.46 53.17 51.83 52.09 51.39 51.60 51.78 51.00 50.51 50.68
38.53 44.87 41.82 46.98 46.49 45.67 46.01 44.05 44.51 44.77 45.42 45.10 45.79 48.07 49.34 47.01 44.81 43.53 46.10 48.75 49.14 50.07 52.34 53.51 52.52 51.40 51.10 51.74 50.92 51.30 52.40 55.21 54.42 52.48 53.18 55.12 55.88 54.79 53.66 52.85 52.05 51.40 52.84 53.69 52.64 51.20 50.98 51.34 51.33 51.07 50.59 49.17 45.76 51.34
40.36 44.68 48.58 51.56 50.37 48.88 47.12 47.91 48.07 46.43 45.40 45.21 46.78 46.81 46.11 43.37 43.14 46.85 50.43 51.68 50.52 53.85 54.41 54.53 54.70 52.97 52.02 52.60 53.75 53.31 53.28 53.65 53.09 52.97 53.76 54.14 54.40 54.80 53.45 51.97 51.61 51.84 54.10 53.42 53.78 53.30 52.12 52.10 51.83 51.46 50.37 48.87 49.25 50.66
46.47 49.03 46.83 48.86 48.80 49.81 47.26 47.57 47.39 46.38 46.87 48.99 48.92 45.46 44.66 44.84 45.23 49.94 50.89 52.60 53.89 55.14 55.18 55.00 55.54 54.49 53.58 54.34 54.38 52.93 52.74 54.53 54.97 54.06 53.45 53.53 54.25 54.25 53.64 53.14 51.30 46.71 52.14 53.30 53.23 53.16 53.43 52.24 50.87 50.62 49.65 48.42 48.27 49.73
47.66 51.46 51.24 48.30 49.37 49.25 48.93 47.92 47.17 49.03 50.59 49.27 47.86 47.48 48.09 50.67 51.50 51.55 52.67 53.55 54.75 55.30 53.96 54.21 54.22 54.90 54.73 54.89 52.82 51.92 52.59 53.74 52.59 50.70 50.27 50.02 50.67 51.42 54.20 53.10 52.65 53.06 53.07 52.22 46.22 49.60 52.11 51.93 50.85 50.32 50.29 49.50 49.40 49.29
49.63 52.52 49.62 49.09 48.79 47.75 50.28 51.61 50.30 52.27 52.86 52.82 52.84 52.03 51.36 50.96 52.20 54.18 53.67 53.94 53.59 53.19 52.88 53.52 53.64 53.05 53.30 52.74 52.60 51.56 52.95 53.61 53.32 51.73 49.68 49.65 50.47 51.73 52.37 52.82 51.70 52.11 52.15 50.31 50.06 49.75 46.26 48.46 46.80 48.50 48.76 48.14 47.59 48.28
51.96 50.63 50.66 50.46 48.85 49.59 51.14 53.21 53.71 53.75 53.12 52.75 53.18 50.95 49.68 50.28 52.33 53.59 53.83 53.76 53.26 54.93 54.02 54.22 53.92 52.92 51.29 51.01 51.41 51.33 50.16 52.05 56.55 56.56 54.17 51.75 51.44 53.16 53.18 52.98 52.80 52.77 52.01 51.36 48.67 47.41 46.46 47.00 47.63 48.47 48.83 48.36 48.43 48.38
50.28 51.09 50.32 48.01 48.28 51.85 52.83 51.72 51.70 51.09 51.75 50.77 50.11 51.61 51.35 52.12 50.90 52.61 54.36 54.01 52.85 53.24 51.15 52.43 52.57 52.14 52.85 53.12 52.03 50.37 46.17 48.97 50.27 49.64 49.05 48.26 48.35 48.42 50.51 50.75 51.80 52.78 51.91 50.66 48.93 47.78 48.19 47.97 47.64 47.92 48.50 49.26 49.19 48.74
48.94 49.71 50.04 49.57 49.27 50.00 51.56 51.28 50.78 50.11 49.86 49.72 50.91 51.31 52.36 51.50 50.20 53.82 56.23 56.26 54.97 54.55 53.42 53.06 54.92 55.08 54.69 53.97 52.18 48.93 46.42 45.19 42.55 40.16 40.52 40.81 41.63 44.28 45.68 46.74 48.99 51.29 50.84 49.35 48.83 48.03 47.85 47.26 47.00 47.58 47.40 48.10 48.57 49.11
MSLP
1021.34 1020.97 1020.58 1020.14 1019.80 1019.34 1018.92 1018.59 1018.24 1017.69 1017.17 1016.75 1016.38 1016.13 1015.91 1015.59 1015.18 1015.15 1014.78 1014.15 1013.92 1012.56 1009.89 1008.63 1008.16 1008.31 1007.71 1007.65 1006.95 1003.94 1001.40 1000.11 999.51 999.42 999.44 998.59 997.57 996.67 997.08 997.58 998.03 999.36 1000.26 1000.55 1000.33 999.29 998.09 996.17 996.84 996.40 997.02 998.79 1000.04 1001.31
1021.07 1020.56 1020.11 1019.80 1019.49 1019.04 1018.54 1018.02 1017.70 1017.29 1016.89 1016.44 1016.06 1015.77 1015.50 1015.19 1014.88 1014.64 1014.55 1013.41 1013.22 1012.90 1009.45 1007.95 1006.03 1005.59 1006.39 1006.46 1006.69 1004.95 1003.83 1002.85 1001.65 1001.05 1000.55 999.62 998.78 997.95 997.74 998.49 997.85 998.55 998.62 999.15 999.05 997.90 996.57 995.84 995.47 995.86 995.82 998.09 1000.40 1001.00
1020.66 1020.21 1019.83 1019.45 1019.15 1018.82 1018.35 1017.82 1017.30 1016.91 1016.46 1016.10 1015.70 1015.42 1015.15 1014.80 1014.58 1014.50 1014.24 1013.40 1012.56 1011.63 1008.95 1007.44 1005.16 1003.79 1004.30 1004.54 1005.37 1005.65 1003.75 1003.15 1002.14 1001.80 1001.30 1000.62 999.72 999.05 998.93 998.78 998.26 997.73 997.52 998.14 998.28 997.31 996.59 996.05 995.75 995.93 996.47 997.54 999.17 1000.27
1020.38 1019.91 1019.52 1019.21 1018.88 1018.46 1018.02 1017.49 1016.95 1016.50 1016.15 1015.73 1015.39 1015.15 1014.82 1014.47 1014.20 1014.15 1014.16 1013.61 1013.36 1012.50 1010.63 1007.07 1005.06 1004.29 1003.25 1003.98 1004.62 1004.40 1003.92 1002.90 1002.40 1001.66 1001.62 1001.26 1000.43 999.36 999.54 999.23 998.93 998.76 997.57 998.05 997.90 997.29 996.61 996.20 995.32 996.08 997.08 997.82 999.31 1000.54
1020.19 1019.73 1019.29 1018.95 1018.56 1018.16 1017.63 1017.18 1016.74 1016.29 1015.88 1015.41 1015.09 1014.84 1014.59 1014.24 1013.87 1013.40 1013.04 1012.97 1012.96 1013.16 1011.37 1008.73 1006.10 1003.62 1002.82 1002.55 1003.38 1004.07 1004.37 1003.54 1003.13 1002.87 1002.53 1002.22 1001.26 1000.37 999.91 999.57 1000.30 999.84 999.41 998.98 998.27 996.96 996.45 996.28 996.20 996.38 997.47 998.68 999.72 1000.92
1020.00 1019.57 1019.09 1018.83 1018.52 1018.14 1017.61 1017.09 1016.64 1016.23 1015.78 1015.41 1015.04 1014.72 1014.39 1014.09 1013.75 1013.21 1012.53 1012.38 1012.46 1012.96 1012.34 1009.46 1005.80 1003.81 1002.09 1002.05 1002.18 1003.37 1003.76 1003.51 1003.76 1003.85 1003.32 1002.40 1001.84 1001.33 1001.78 1001.75 1001.18 1000.31 999.53 998.80 998.05 996.71 996.16 995.76 996.33 996.29 997.21 998.59 999.56 1000.50
1019.78 1019.40 1018.90 1018.66 1018.34 1017.99 1017.47 1017.05 1016.52 1016.12 1015.63 1015.16 1014.77 1014.39 1014.05 1013.88 1013.98 1013.73 1013.17 1012.26 1011.85 1012.55 1012.29 1010.36 1006.98 1003.50 1002.48 1003.06 1003.63 1003.55 1003.60 1003.96 1004.07 1004.26 1003.85 1003.30 1002.84 1002.46 1003.01 1002.58 1001.40 1000.63 999.84 998.04 996.84 995.97 996.30 996.38 996.85 997.02 997.55 999.27 1000.28 1001.61
1019.56 1019.17 1018.75 1018.45 1018.20 1017.82 1017.40 1016.95 1016.43 1015.89 1015.36 1014.85 1014.36 1013.89 1013.53 1013.22 1012.93 1013.04 1012.05 1011.91 1011.89 1012.04 1011.66 1010.36 1007.38 1004.97 1002.81 1003.53 1003.75 1003.41 1003.78 1004.07 1004.23 1004.70 1004.24 1004.07 1003.55 1003.51 1003.74 1002.69 1001.78 1000.65 999.50 998.47 997.89 997.28 996.88 996.47 997.24 998.11 998.83 999.91 1001.49 1002.67
1019.28 1018.98 1018.59 1018.30 1017.97 1017.55 1017.07 1016.62 1016.19 1015.58 1014.89 1014.31 1013.65 1013.21 1013.29 1013.12 1012.86 1012.30 1011.62 1011.49 1011.68 1012.29 1011.52 1010.20 1008.43 1006.39 1003.99 1003.84 1003.90 1004.15 1004.32 1005.11 1004.69 1005.01 1004.96 1004.52 1004.49 1004.25 1003.36 1002.70 1002.16 1001.29 1001.20 1000.94 999.53 998.78 998.36 997.70 998.46 999.32 1000.17 1001.80 1002.75 1004.19
1019.07 1018.78 1018.42 1018.14 1017.75 1017.33 1016.92 1016.31 1015.87 1015.40 1014.60 1013.89 1013.64 1013.53 1013.39 1012.66 1011.98 1011.79 1011.53 1011.57 1011.61 1011.53 1011.36 1010.34 1008.56 1007.34 1005.87 1004.90 1004.56 1004.81 1004.97 1005.38 1005.40 1005.23 1004.75 1004.99 1004.77 1003.40 1002.55 1002.36 1002.01 1001.59 1001.46 1001.78 1001.26 1000.42 1000.07 1000.28 1000.52 1000.57 1000.73 1001.14 1002.62 1004.25
1018.77 1018.52 1018.20 1017.86 1017.50 1017.31 1016.82 1016.36 1015.85 1015.27 1014.55 1014.58 1014.73 1014.42 1013.37 1012.31 1012.20 1012.16 1012.08 1011.72 1011.10 1010.99 1010.34 1009.26 1008.30 1007.57 1006.02 1005.70 1005.54 1005.47 1005.58 1005.48 1005.80 1005.53 1005.40 1005.73 1005.09 1003.60 1002.38 1001.76 1001.08 1000.99 1001.23 1001.20 1001.64 1001.16 1000.78 1000.82 1001.31 1001.68 1002.16 1002.53 1002.97 1003.33
1018.37 1018.15 1017.79 1017.44 1017.17 1017.02 1016.63 1016.23 1015.90 1015.66 1015.48 1015.33 1015.30 1014.76 1013.98 1013.10 1012.84 1012.81 1011.92 1011.28 1010.79 1010.02 1009.12 1008.61 1007.84 1007.34 1006.44 1005.88 1006.11 1006.12 1006.09 1005.99 1005.89 1005.41 1005.64 1005.48 1004.71 1003.32 1002.53 1001.88 1001.13 1000.73 1000.64 1000.69 1001.42 1001.19 1001.43 1000.86 1001.36 1002.14 1002.60 1002.45 1003.11 1003.21
1017.99 1017.68 1017.27 1017.00 1016.76 1016.59 1016.35 1016.09 1015.88 1015.56 1015.13 1015.02 1015.10 1014.91 1014.34 1013.62 1013.34 1012.75 1011.80 1010.89 1010.24 1009.54 1009.15 1008.42 1007.80 1007.26 1006.81 1006.47 1006.69 1006.48 1006.40 1006.36 1005.59 1005.65 1005.43 1004.90 1004.17 1003.53 1003.17 1002.15 1001.30 1000.85 1000.84 1000.41 1000.12 1001.76 1001.79 1000.94 1001.13 1001.98 1003.00 1003.29 1003.21 1003.77
1017.57 1017.16 1016.67 1016.34 1016.10 1016.00 1015.94 1015.85 1015.76 1015.49 1015.42 1015.47 1015.18 1014.82 1014.48 1013.48 1012.79 1011.98 1011.43 1010.63 1009.91 1009.57 1008.98 1008.52 1008.05 1007.79 1007.45 1007.20 1007.11 1007.10 1006.73 1006.42 1006.26 1005.89 1005.40 1005.01 1004.51 1003.94 1003.30 1002.53 1002.19 1001.40 1001.04 1001.24 1001.10 1000.83 1001.36 1001.40 1001.86 1002.40 1003.11 1003.67 1004.24 1005.14
1017.16 1016.56 1015.88 1015.44 1015.16 1015.35 1015.60 1015.72 1015.68 1015.56 1015.54 1015.33 1014.93 1014.31 1013.49 1012.58 1011.71 1011.12 1010.58 1010.31 1010.02 1009.59 1009.30 1008.97 1008.75 1008.55 1008.42 1008.06 1007.62 1007.33 1007.00 1006.64 1006.12 1005.74 1005.27 1004.83 1004.39 1003.95 1003.49 1003.00 1002.34 1001.62 1001.38 1001.10 1001.05 1001.21 1001.50 1001.63 1002.25 1002.91 1003.63 1004.43 1005.12 1005.55
1016.79 1016.03 1015.29 1015.16 1015.16 1015.30 1015.53 1015.58 1015.44 1015.30 1015.19 1014.91 1014.34 1013.55 1012.75 1012.50 1012.02 1011.68 1011.21 1011.12 1010.68 1010.33 1009.75 1009.67 1009.79 1009.66 1009.33 1008.82 1008.40 1007.70 1007.25 1006.57 1006.49 1005.68 1005.27 1005.03 1004.66 1004.43 1004.02 1003.34 1002.80 1002.11 1001.41 1001.34 1001.50 1001.31 1001.29 1001.84 1002.38 1003.32 1004.12 1004.73 1005.34 1005.48
1016.51 1016.10 1015.27 1015.27 1015.44 1015.61 1015.59 1015.71 1015.59 1015.41 1015.05 1014.24 1013.31 1012.80 1012.80 1012.65 1012.37 1012.27 1012.04 1011.61 1011.12 1011.15 1011.12 1010.73 1010.63 1010.02 1009.38 1008.91 1008.31 1007.34 1007.03 1006.92 1006.69 1006.08 1005.84 1005.40 1005.27 1004.88 1004.27 1003.64 1003.02 1002.28 1001.46 1001.00 1001.11 1001.37 1001.69 1002.23 1002.76 1003.70 1004.92 1006.00 1006.58 1006.91
1016.58 1015.77 1015.43 1015.56 1015.68 1015.68 1015.65 1015.76 1015.64 1015.31 1014.45 1013.49 1013.20 1012.46 1012.39 1012.06 1011.93 1011.82 1011.75 1011.78 1011.90 1011.62 1011.45 1011.32 1011.11 1010.44 1009.46 1008.48 1007.83 1007.08 1006.72 1006.74 1006.61 1006.47 1006.18 1005.78 1005.46 1005.07 1004.60 1004.19 1003.45 1002.79 1001.99 1001.48 1001.17 1001.60 1002.11 1002.38 1003.13 1004.14 1004.94 1005.76 1006.72 1007.34
1016.01 1015.42 1015.32 1015.43 1015.60 1015.65 1015.57 1015.54 1015.55 1014.86 1013.65 1013.07 1012.39 1012.11 1011.87 1011.37 1010.89 1010.79 1011.10 1011.38 1011.56 1011.48 1011.34 1011.35 1011.11 1010.15 1009.12 1007.83 1007.59 1007.36 1006.98 1006.87 1006.85 1006.88 1006.53 1006.15 1005.84 1005.49 1005.04 1004.48 1003.88 1003.40 1002.94 1002.48 1002.25 1002.44 1002.61 1002.40 1003.08 1003.77 1004.90 1005.55 1006.18 1007.09
1014.97 1014.24 1013.56 1014.71 1015.38 1015.45 1015.18 1014.94 1014.99 1014.34 1013.15 1012.08 1011.63 1011.15 1010.78 1010.08 1009.70 1009.73 1010.06 1010.59 1011.17 1011.47 1011.35 1010.61 1009.56 1008.50 1007.99 1007.59 1007.32 1007.34 1007.14 1006.85 1006.69 1006.64 1006.65 1006.32 1005.98 1005.66 1005.36 1004.90 1004.39 1004.11 1003.59 1003.05 1002.97 1002.80 1003.06 1003.31 1003.85 1004.28 1004.99 1006.18 1006.86 1007.84
1014.56 1014.25 1014.28 1014.78 1015.17 1015.17 1014.66 1014.00 1013.78 1013.12 1012.15 1011.39 1010.26 1010.11 1009.30 1008.67 1008.47 1008.47 1009.06 1009.80 1010.35 1009.94 1009.32 1008.57 1008.20 1007.88 1007.56 1007.16 1007.17 1007.05 1007.13 1006.99 1006.89 1006.84 1006.79 1006.45 1006.01 1005.78 1005.35 1004.87 1004.67 1004.49 1004.50 1003.92 1003.32 1003.41 1003.40 1003.63 1003.95 1004.42 1004.94 1006.25 1007.23 1007.99
1014.33 1013.85 1014.13 1014.47 1014.44 1014.39 1013.86 1013.02 1012.54 1011.71 1011.36 1010.09 1009.48 1008.67 1007.98 1007.22 1006.71 1007.31 1008.03 1008.43 1008.33 1007.56 1007.10 1006.89 1006.72 1006.72 1006.96 1006.93 1006.50 1006.42 1006.50 1006.41 1006.30 1006.26 1006.14 1006.14 1006.07 1005.58 1005.09 1004.56 1004.53 1004.60 1004.58 1004.31 1003.77 1003.56 1003.89 1004.05 1004.29 1005.17 1005.67 1006.86 1007.61 1007.44
1013.57 1013.72 1013.59 1013.77 1013.81 1013.31 1012.31 1011.45 1011.42 1010.68 1010.10 1009.03 1008.28 1007.62 1006.77 1006.09 1006.11 1006.89 1006.79 1006.44 1005.89 1005.35 1005.06 1004.99 1005.06 1005.31 1005.45 1005.47 1005.72 1005.68 1005.71 1005.77 1005.96 1005.91 1005.86 1005.83 1005.52 1005.14 1004.83 1004.60 1004.58 1004.63 1004.76 1004.53 1003.94 1003.77 1003.98 1004.57 1005.31 1006.12 1006.58 1006.94 1007.27 1008.10
1012.95 1013.05 1012.87 1012.76 1012.64 1011.80 1010.88 1010.51 1010.16 1009.55 1008.91 1008.30 1007.61 1006.70 1005.97 1005.60 1005.57 1005.58 1005.58 1005.02 1004.40 1004.06 1003.86 1003.29 1003.42 1003.58 1003.98 1004.30 1004.41 1004.38 1004.41 1004.73 1005.01 1005.25 1005.22 1005.31 1005.03 1004.94 1004.75 1004.78 1004.89 1004.99 1005.06 1004.34 1004.57 1004.96 1004.88 1005.71 1005.87 1005.64 1006.38 1007.10 1007.88 1008.46
1012.93 1012.38 1012.32 1011.68 1011.12 1010.66 1009.86 1009.37 1009.07 1008.75 1008.16 1007.59 1007.03 1006.19 1005.63 1005.41 1005.35 1005.36 1005.40 1004.92 1003.82 1003.23 1002.51 1002.13 1002.30 1002.55 1002.84 1003.26 1003.50 1003.51 1003.26 1003.66 1004.25 1004.70 1004.53 1004.54 1004.75 1004.94 1005.10 1005.29 1005.35 1005.46 1005.50 1005.20 1005.61 1005.40 1006.05 1006.34 1006.55 1006.41 1007.05 1007.66 1008.40 1009.03
1011.97 1011.03 1010.80 1009.82 1009.45 1009.56 1009.12 1008.89 1008.59 1008.27 1007.87 1007.33 1006.65 1006.01 1005.51 1005.48 1005.62 1005.60 1005.43 1005.07 1004.44 1004.01 1003.32 1002.89 1002.85 1003.07 1003.28 1003.41 1003.52 1003.64 1003.76 1003.68 1003.75 1004.29 1004.84 1004.79 1004.84 1004.76 1005.13 1005.50 1005.86 1006.18 1006.07 1005.96 1006.01 1006.55 1006.81 1006.95 1007.14 1007.36 1007.73 1008.18 1008.40 1008.88
1010.88 1009.76 1009.05 1008.60 1008.59 1008.69 1008.57 1008.25 1008.12 1008.00 1007.49 1006.99 1006.69 1006.35 1006.27 1006.22 1006.31 1006.43 1006.07 1005.72 1005.26 1005.08 1004.62 1004.14 1003.89 1004.01 1003.97 1004.17 1004.26 1004.42 1004.33 1004.18 1004.28 1004.90 1005.14 1005.41 1005.68 1005.63 1004.95 1005.73 1006.05 1006.22 1006.11 1006.17 1006.32 1006.44 1006.96 1007.53 1007.69 1007.90 1008.22 1008.61 1008.79 1009.18
1009.40 1008.56 1008.23 1008.26 1008.28 1008.24 1008.11 1007.72 1007.39 1007.24 1007.03 1006.78 1006.67 1006.63 1006.77 1006.98 1007.14 1006.91 1006.70 1006.32 1006.02 1005.61 1005.25 1005.06 1004.81 1004.74 1004.73 1004.68 1004.94 1005.03 1005.12 1005.05 1005.12 1005.42 1005.79 1006.33 1006.44 1006.44 1006.33 1006.33 1006.56 1006.31 1006.22 1006.23 1006.62 1007.02 1007.42 1007.90 1008.09 1008.13 1008.31 1008.72 1008.93 1009.31
1008.06 1007.28 1007.42 1007.65 1007.59 1007.52 1007.22 1007.08 1006.79 1006.66 1006.73 1006.78 1006.75 1006.77 1007.00 1007.21 1007.33 1007.25 1006.94 1006.66 1006.17 1005.79 1005.48 1005.34 1005.29 1005.02 1005.06 1005.12 1005.32 1005.39 1005.30 1005.36 1005.47 1005.71 1006.17 1006.69 1007.00 1007.29 1006.89 1006.80 1006.72 1006.56 1006.64 1006.80 1006.90 1007.04 1007.05 1007.58 1007.94 1007.82 1008.14 1008.48 1009.04 1009.48
1006.61 1006.11 1006.53 1006.60 1006.60 1006.29 1006.03 1005.89 1005.92 1005.76 1006.09 1006.24 1006.44 1006.74 1007.05 1007.29 1007.32 1007.13 1007.00 1006.75 1006.46 1006.20 1005.88 1005.55 1005.12 1004.86 1004.90 1005.12 1005.62 1005.88 1005.85 1005.78 1005.76 1005.93 1006.24 1006.45 1006.57 1006.52 1006.69 1006.93 1007.13 1007.17 1007.27 1007.34 1007.48 1007.82 1007.84 1007.90 1008.00 1008.24 1008.45 1008.80 1009.19 1009.37
1005.35 1005.61 1005.82 1006.16 1005.69 1005.37 1005.17 1005.22 1005.14 1005.41 1005.61 1005.93 1006.15 1006.54 1007.06 1007.21 1007.06 1006.94 1006.80 1006.58 1006.44 1006.09 1005.77 1005.31 1004.97 1004.81 1004.63 1004.85 1005.10 1005.44 1005.72 1005.61 1005.65 1005.71 1005.87 1006.10 1006.37 1006.51 1006.65 1006.84 1007.02 1007.10 1007.24 1007.35 1007.47 1007.73 1008.03 1008.28 1008.24 1008.27 1008.59 1008.78 1008.98 1009.20
1005.06 1005.47 1005.56 1005.38 1005.23 1004.76 1004.53 1005.11 1005.20 1005.13 1005.07 1005.51 1005.97 1006.27 1006.84 1006.79 1006.78 1006.48 1006.08 1006.21 1006.29 1006.20 1005.94 1005.74 1005.46 1005.31 1004.98 1004.90 1004.95 1005.13 1005.34 1005.45 1005.73 1005.99 1006.10 1006.17 1006.25 1006.03 1006.17 1006.48 1006.70 1006.89 1007.11 1007.31 1007.56 1007.69 1007.58 1007.68 1007.90 1008.11 1008.29 1008.54 1008.67 1009.01
1004.70 1004.68 1004.62 1004.64 1004.65 1004.59 1004.33 1004.40 1004.21 1004.35 1004.55 1004.97 1005.22 1005.49 1005.74 1005.95 1006.14 1005.76 1005.55 1005.50 1005.72 1005.82 1005.74 1005.63 1005.46 1005.37 1005.24 1005.01 1005.13 1005.48 1005.54 1005.80 1005.80 1005.71 1005.68 1005.69 1005.79 1006.01 1006.16 1006.19 1006.20 1006.44 1006.92 1007.24 1007.20 1007.26 1007.37 1007.43 1007.62 1007.85 1008.06 1008.39 1008.54 1008.67
Wind_Speed
12 13 13 13 14 15 14 15 15 15 14 13 14 11 8 13 13 4 6 6 3 4 10 8 13 5 5 3 4 9 8 8 7 7 3 3 1 1 7 7 11 8 8 4 5 5 3 2 4 14 9 26 26 21
14 14 13 12 13 14 14 14 14 14 15 13 14 11 10 9 12 9 3 3 5 5 8 11 23 19 13 18 4 6 2 4 3 3 3 3 3 4 4 4 2 4 9 8 10 10 8 5 7 3 27 28 16 22
11 11 11 11 12 14 15 16 15 15 15 14 14 11 12 10 11 7 4 4 4 3 7 1 9 14 7 13 9 1 5 5 7 5 3 3 3 2 4 1 3 4 4 5 5 4 7 7 4 19 26 27 23 20
12 11 11 12 13 14 15 16 16 15 15 15 14 13 13 13 11 10 2 2 2 4 4 7 6 6 9 7 13 7 6 8 4 2 1 2 2 3 2 3 4 3 3 5 0 4 2 6 14 17 16 21 19 22
11 10 11 11 12 13 14 11 12 14 12 12 11 11 11 12 14 10 5 4 4 2 4 6 14 8 11 8 9 8 5 5 4 5 4 2 1 5 4 5 6 5 2 3 6 6 7 6 12 23 24 23 24 22
9 10 10 11 11 12 13 11 11 12 11 12 12 12 11 11 13 4 2 1 2 3 2 5 5 6 4 3 2 5 3 2 2 1 3 4 2 5 5 3 4 4 4 5 3 7 7 11 19 24 25 25 24 25
9 9 9 11 11 12 11 12 12 13 13 13 14 14 14 11 1 2 3 4 10 1 1 5 6 6 4 5 2 1 2 2 3 2 3 2 3 5 3 2 5 8 4 11 15 6 8 12 13 18 25 19 17 18
9 9 9 10 12 13 13 13 13 14 16 15 15 16 16 17 9 4 3 5 2 1 0 3 6 5 2 1 1 0 2 3 4 2 4 3 4 3 0 7 7 9 6 20 17 11 2 9 13 17 20 22 20 19
9 9 10 11 12 13 13 14 16 15 17 18 18 15 3 2 2 4 7 6 2 2 2 3 2 4 6 1 1 3 3 2 2 3 1 4 3 2 8 3 5 7 10 8 10 16 15 17 21 21 22 17 17 14
10 9 10 11 12 13 14 13 14 16 19 16 5 3 3 3 6 7 4 1 1 2 2 3 3 4 3 3 3 3 1 3 2 5 2 3 5 6 7 6 6 6 5 6 9 10 10 9 10 13 22 24 21 18
11 10 10 11 12 13 14 12 12 15 9 4 4 2 4 8 4 1 2 1 1 2 3 5 4 3 4 3 1 1 1 1 3 5 5 2 4 5 10 11 9 7 4 2 4 3 4 3 8 8 13 12 14 20
13 12 10 11 11 11 12 10 10 4 1 4 3 4 3 3 3 2 3 3 2 4 2 3 4 5 5 2 4 4 2 3 2 1 3 2 6 6 4 9 10 7 7 6 3 5 3 8 10 10 11 15 18 19
13 13 12 11 11 10 11 10 9 9 6 2 1 2 1 1 4 2 2 3 2 5 4 4 2 2 4 4 3 4 4 3 2 2 4 5 5 5 6 6 8 6 5 8 8 6 3 8 7 16 14 11 16 18
14 14 13 13 12 9 8 5 8 7 2 1 2 3 3 3 4 5 4 3 4 2 6 3 2 3 2 3 1 3 3 3 3 2 3 4 5 8 8 6 4 8 6 6 8 7 6 2 7 9 6 10 14 15
15 17 17 15 13 9 5 4 7 2 1 2 2 5 6 4 5 4 5 1 4 3 4 4 4 3 3 3 1 2 1 3 5 2 3 3 4 6 10 11 12 5 5 6 6 6 3 7 10 13 11 9 11 14
16 16 3 6 1 5 3 4 2 1 2 3 5 3 3 1 3 4 5 3 4 4 3 3 3 3 1 2 1 6 3 4 2 3 2 3 7 8 9 10 11 9 4 3 4 4 8 11 15 13 10 10 13 17
15 4 3 3 7 5 2 1 1 2 3 4 4 2 1 3 5 3 0 2 3 4 1 2 1 7 1 2 4 4 4 2 2 3 2 5 6 7 9 10 11 12 8 6 3 7 7 11 16 16 15 7 7 8
4 3 3 6 3 1 0 1 1 3 5 4 4 2 2 4 4 4 3 2 1 1 1 1 2 2 4 4 3 4 1 1 3 3 4 4 6 7 6 8 11 8 4 3 4 9 12 16 16 11 15 14 12 11
9 12 9 10 5 1 2 3 2 4 5 3 4 3 4 4 5 7 5 4 3 1 0 0 4 5 6 4 2 0 1 2 2 2 3 5 6 7 8 7 7 6 3 3 6 6 8 14 13 13 12 12 12 12
23 19 13 14 9 2 3 2 2 4 4 3 3 3 3 4 3 3 6 7 5 3 4 6 7 4 4 3 1 1 1 2 3 3 2 3 4 6 8 4 2 4 3 4 7 8 8 7 7 10 10 10 10 9
9 2 9 8 3 3 3 2 4 4 3 4 2 4 4 3 4 6 4 6 4 4 5 7 4 5 7 6 2 2 2 2 2 3 3 5 4 4 7 4 3 2 2 3 6 6 7 9 10 11 12 11 7 7
4 9 3 3 3 4 4 4 4 2 3 4 3 3 4 3 3 5 7 3 4 5 6 7 10 11 11 13 13 9 6 6 5 4 5 5 5 5 5 3 2 3 3 4 8 8 5 6 8 10 11 9 9 10
7 4 2 3 4 4 6 3 4 4 4 3 2 3 3 1 1 6 4 5 5 6 7 9 11 11 12 11 7 7 7 7 5 5 4 4 6 5 3 2 3 5 4 3 6 6 8 12 11 11 11 8 11 11
4 3 3 4 6 5 2 3 4 3 3 3 3 4 3 1 3 2 3 3 3 3 7 12 8 8 6 9 9 9 9 8 7 4 4 5 2 2 3 4 4 4 3 8 9 9 10 7 5 10 11 12 11 11
2 4 3 6 4 5 4 2 2 3 3 3 3 3 3 2 2 3 3 4 6 8 7 5 6 6 5 4 3 2 3 7 7 5 1 6 7 6 6 5 6 4 3 8 8 11 9 4 4 8 11 12 12 12
4 5 7 4 3 3 2 3 2 3 3 3 3 3 2 2 3 4 5 7 5 5 8 6 6 7 7 5 4 5 4 3 8 7 4 4 3 7 7 7 7 3 3 6 11 12 11 7 8 8 8 7 11 12
4 5 5 2 2 0 3 3 3 3 4 3 3 4 4 5 4 4 5 5 3 5 7 7 8 7 5 5 6 6 6 6 8 7 6 6 6 4 3 4 6 2 2 5 5 9 10 8 7 6 5 4 4 7
5 4 5 4 2 2 3 3 3 2 3 2 3 3 3 3 3 3 2 4 5 5 3 3 3 4 7 6 6 5 5 5 7 8 9 7 5 5 5 3 3 7 5 6 5 4 5 6 5 7 7 6 4 4
5 3 4 4 3 3 4 3 2 1 1 1 2 2 1 1 2 2 3 4 5 4 4 5 5 4 3 4 4 3 3 4 6 9 9 6 3 1 1 0 1 4 4 3 6 5 5 5 5 3 8 6 5 5
5 4 4 2 4 2 3 4 2 4 3 2 2 2 2 2 2 2 3 3 4 4 4 4 4 1 3 5 6 3 2 2 2 4 5 4 5 3 4 4 3 2 2 3 3 1 6 6 5 3 3 3 3 2
3 3 4 2 2 2 3 4 1 1 1 2 1 3 1 1 2 3 3 2 3 4 5 4 5 4 5 6 4 5 3 3 9 9 0 2 3 5 6 5 4 4 4 4 3 4 3 3 4 5 6 6 6 7
2 4 2 2 2 4 2 4 4 4 3 3 2 3 1 1 1 3 2 2 1 3 3 3 4 4 4 4 4 5 7 7 9 6 8 5 5 5 6 5 5 5 5 4 5 6 5 5 4 5 5 7 7 7
2 0 1 2 2 2 4 5 4 4 2 2 2 5 5 4 2 3 1 4 3 3 3 3 4 3 3 3 6 5 6 5 8 9 11 11 11 9 5 4 4 6 8 7 6 6 6 5 3 4 4 6 7 7
Wind_Direction
336 329 324 322 324 323 319 318 318 315 316 320 323 321 312 321 322 332 256 252 247 297 279 265 263 252 300 238 259 292 333 353 7 40 63 289 112 158 94 162 155 146 124 180 99 110 267 194 196 162 193 155 164 160
325 326 331 339 329 324 321 314 315 316 320 317 320 327 316 323 321 337 280 309 291 215 255 282 273 265 240 226 239 309 281 274 280 25 347 331 354 23 113 126 2 87 170 168 175 204 216 245 188 78 148 150 164 150
328 329 334 337 329 326 326 325 325 317 310 313 309 321 310 315 318 336 276 307 307 281 282 250 252 271 227 216 190 217 308 308 333 201 227 259 53 83 65 28 107 343 142 113 97 291 226 180 75 146 152 156 160 153
319 326 335 334 332 333 329 322 317 313 311 314 314 311 310 310 310 320 256 275 258 277 280 290 324 321 275 180 180 197 250 307 256 19 38 64 31 34 68 186 91 253 48 142 237 283 47 343 136 145 152 147 141 143
318 325 335 334 334 337 343 346 341 351 347 335 325 315 315 318 318 304 247 215 186 175 279 286 298 253 245 169 178 216 251 298 351 356 7 354 295 21 338 62 24 355 292 114 214 244 168 207 164 138 137 146 145 141
324 327 334 333 334 335 346 337 335 336 336 335 338 332 325 323 334 322 12 129 139 67 271 298 279 282 356 138 114 203 209 297 47 65 285 327 345 76 60 83 225 292 286 217 268 271 231 159 168 154 146 152 153 148
327 326 335 331 329 328 334 335 336 330 322 318 313 311 310 312 356 242 250 277 318 89 156 301 295 274 171 120 152 222 128 201 118 319 346 345 346 58 68 11 293 303 312 13 15 32 60 146 166 159 141 139 133 136
320 320 334 332 330 325 322 321 321 320 315 312 305 299 298 299 294 281 240 265 154 24 246 269 272 327 58 75 50 261 37 18 6 161 343 13 347 66 209 267 317 317 30 27 9 18 46 113 128 129 130 129 130 137
309 315 327 326 327 323 322 320 314 312 311 310 306 301 346 22 319 261 296 313 182 141 298 320 298 295 346 342 128 27 88 43 299 87 281 68 330 227 214 246 333 343 49 359 9 44 52 93 117 121 116 107 110 116
310 315 324 324 323 321 324 321 316 314 315 318 7 1 343 274 279 339 6 353 337 237 251 250 265 278 19 346 347 87 52 165 94 251 68 104 259 257 238 223 263 328 359 48 30 29 42 49 98 116 136 132 126 118
304 307 317 316 319 325 328 332 330 328 345 16 1 304 268 300 19 328 304 248 236 262 223 240 218 265 311 53 3 35 173 8 79 268 117 267 284 255 247 273 266 275 299 355 101 345 99 101 170 144 148 138 141 150
299 300 304 303 307 316 323 326 333 353 253 228 247 282 293 344 2 346 280 287 215 249 228 196 228 205 287 40 70 342 88 40 213 270 99 250 247 239 230 254 266 278 294 282 139 67 329 70 115 170 173 150 154 139
298 295 295 293 294 301 309 312 323 313 301 341 259 283 3 263 14 267 280 276 296 336 349 320 281 190 349 38 46 52 53 239 343 25 225 222 306 338 302 269 262 265 271 308 341 117 177 340 145 164 174 165 155 146
299 296 292 287 282 277 291 320 337 335 347 264 207 294 183 232 240 202 214 263 266 356 325 335 349 75 333 35 107 82 240 53 334 253 248 316 323 327 353 328 290 263 251 243 254 278 133 205 150 131 128 149 147 147
303 300 294 289 273 255 254 335 333 315 268 261 230 234 225 256 295 273 213 29 340 324 5 7 14 66 351 41 326 37 179 225 214 275 268 287 334 352 1 355 346 273 249 225 233 239 148 155 132 138 144 145 147 136
314 310 269 245 277 132 57 345 302 241 272 232 237 269 280 346 312 10 2 14 341 334 351 38 35 44 306 189 310 215 199 222 158 265 313 0 15 2 349 353 341 333 336 281 263 172 149 136 134 131 117 134 146 139
317 239 314 153 119 91 70 342 308 248 252 257 249 255 253 261 236 219 306 333 344 26 339 15 209 219 243 233 219 202 211 145 254 0 36 38 21 345 342 349 344 327 334 1 49 162 135 126 127 126 125 132 135 132
244 275 219 152 122 103 320 192 264 261 252 241 246 223 207 228 246 240 203 199 130 252 75 224 296 267 230 205 210 258 18 122 77 41 1 6 5 344 345 339 333 315 295 332 86 119 134 139 138 132 127 126 121 123
272 275 245 189 174 258 269 197 211 262 250 255 248 225 226 241 226 236 210 190 194 228 346 134 237 209 226 221 125 208 10 47 35 343 344 3 349 335 330 336 346 353 52 54 100 139 163 156 147 139 142 143 142 147
289 289 272 183 174 218 250 219 181 251 261 247 220 226 222 223 188 203 201 179 170 161 199 219 216 221 210 233 114 135 266 326 8 1 330 314 321 324 325 326 337 338 336 79 98 104 121 115 136 136 129 139 141 149
301 95 119 144 170 236 271 229 227 232 259 248 231 201 242 191 213 189 150 143 177 214 219 220 228 245 275 272 246 292 282 298 260 210 250 295 297 301 301 260 203 180 330 291 164 164 149 140 135 128 128 131 143 148
252 166 125 183 215 207 248 222 248 257 240 258 261 221 253 252 229 142 134 174 210 216 207 209 223 228 235 243 259 261 218 233 244 243 267 279 288 293 288 275 164 182 220 271 218 179 160 134 124 129 125 128 150 123
154 184 214 172 228 227 256 180 231 219 253 256 256 256 241 267 58 141 202 197 224 209 216 228 229 217 221 228 217 225 211 215 223 226 239 246 263 247 190 92 127 136 117 49 67 77 120 120 117 128 119 130 130 120
187 220 225 213 200 263 251 231 218 251 257 255 256 277 300 320 308 233 252 261 229 238 250 247 240 238 224 214 218 226 220 209 218 223 221 246 160 64 90 84 72 77 107 101 83 72 62 43 127 128 128 128 128 128
270 256 171 255 237 240 249 244 244 263 272 271 279 294 315 330 279 332 315 294 310 329 342 42 79 89 107 106 102 95 98 163 173 177 208 134 123 109 85 71 70 59 92 101 110 106 104 106 93 115 132 136 136 141
243 228 191 244 199 213 277 285 263 285 290 287 272 286 323 320 357 360 340 326 324 334 1 23 66 77 60 54 78 64 51 95 117 89 44 38 97 125 125 125 123 63 42 133 131 134 131 119 112 106 106 94 115 133
250 255 221 258 155 259 282 252 246 251 271 278 328 337 344 4 356 360 319 347 350 346 350 13 58 72 73 56 59 51 57 51 73 101 102 67 41 61 107 128 125 159 106 96 101 114 119 132 133 141 144 122 133 131
240 262 206 178 223 222 259 279 276 301 303 313 315 20 15 14 353 327 338 315 332 327 329 18 56 86 87 84 85 80 57 57 79 89 90 67 40 22 40 67 64 107 83 100 108 140 160 171 187 169 147 145 155 158
246 220 114 200 207 227 228 233 269 262 253 310 350 35 46 21 351 316 315 320 313 331 354 9 12 45 83 122 122 148 156 142 126 100 96 107 109 2 279 280 85 69 74 89 73 80 75 75 48 141 156 154 179 185
232 175 176 204 194 241 189 181 209 215 163 201 109 64 50 360 293 272 294 322 339 331 312 300 287 345 140 156 163 191 239 227 203 131 140 165 203 182 165 175 179 148 126 112 111 11 348 348 356 65 110 126 139 143
188 148 96 246 244 239 174 184 204 87 143 126 115 102 106 284 294 229 238 254 291 313 327 351 360 26 50 56 89 146 184 232 218 219 261 49 163 170 181 189 188 188 185 177 168 176 189 203 184 167 177 192 191 163
142 94 237 204 165 260 85 134 210 226 221 143 141 109 119 97 296 289 239 162 321 326 321 347 19 29 23 54 75 70 97 84 85 114 128 120 110 92 151 168 170 174 181 206 195 197 168 140 141 145 158 171 191 167
85 271 248 131 108 203 222 169 209 223 138 132 182 172 183 160 216 259 227 195 190 220 267 279 289 314 321 142 114 96 81 104 124 113 98 95 99 98 79 60 92 161 185 188 184 171 166 150 142 213 212 188 182 173